Погода в Курагино

Россия / Красноярский край     53°53′18″N   92°40′03″E
темп.,
°C
ветер,
м/с
пор.,
м/с
влажн.,
%
обл.,
%
осадки,
мм/ч
давл.,
гПа
погр.,
м
1 марта, пн
пн101:00−19всв2290100 0.0 103220
04:00−19всв2295100 0.1 102921
07:00−18всв2294100 0.1 102720
10:00−14в2494100 0.1 1023205
13:00−11в3593100 0.5 1018337
16:00−8юв2495100 1.3 1014356
19:00−8вюв1297100 2.8 101344
22:00−8вюв1397100 2.0 1012135
2 марта, вт
вт201:00−7юв2397100 3.4 1011113
04:00−7ююв2397100 1.2 100998
07:00−5ююв2697100 1.8 1009194
10:00−2зюз51188100 0.8 1009775
13:000зюз61180100 0.9 10101328
16:000з4884100 0.2 1010790
19:00−3з2495100 0.9 1012156
22:00−5зсз1297100 1.1 101369
3 марта, ср
ср301:00−6зсз1297100 2.0 101231
04:00−8с1296100 0.3 101321
07:00−9с2296100 0.8 101441
10:00−8сз1294100 0.3 1015156
13:00−6сз2285100 0.4 1016392
16:00−6сз228698 0.0 1017338
19:00−10ссз118994 0.0 102021
22:00−10с118893 0.0 102221
4 марта, чт
чт401:00−11в009696 0.2 102321
04:00−11ююв119799 0.4 102521
07:00−14ю229580 0.6 102821
10:00−11ююв239114 0.1 1028154
13:00−7ю24797 0.1 1027533
16:00−5юв35830 0.0 1025514
19:00−8в128717 0.0 102621
22:00−9в2287100 0.0 102621
5 марта, пт
пт501:00−11всв128797 0.0 102421
04:00−12всв2287100 0.0 102321
07:00−13в1287100 0.0 102321
10:00−9в228866 0.0 1021117
13:00−4вюв368534 0.0 1016397
16:00−1в378896 0.0 1013405
19:00−2ю499298 0.1 1016340
22:00−3юз51485100 0.0 1020581